Wind_Speed
37 37 39 36 33 30 29 28 30 29 26 29 32 36 32 33 35 38 44 46 49 50 49 51 56 60 59 58 60 66 66 66 61 59 60 58 56 61 51 57 58 46 26 54
41 39 36 31 29 31 30 29 22 23 18 31 23 29 27 26 29 31 34 38 40 44 44 46 50 57 57 61 61 65 66 61 59 54 66 60 47 60 55 56 63 64 65 65
40 36 29 32 36 36 34 36 25 21 31 28 26 32 22 19 26 31 30 33 34 38 41 44 48 51 54 60 62 64 63 60 57 62 61 60 64 63 58 66 65 61 65 66
39 35 32 36 38 35 33 35 28 28 26 22 20 17 16 13 20 26 29 29 28 28 31 40 45 46 50 47 53 61 53 58 52 48 55 57 62 61 67 63 68 67 66 69
38 38 37 39 38 32 29 25 33 30 25 28 28 24 14 16 19 25 22 21 21 21 17 14 21 31 19 23 26 39 53 59 53 59 60 66 63 70 70 73 68 64 67 77
35 33 36 32 31 30 28 28 22 24 24 34 32 26 15 20 17 17 22 17 17 16 17 13 19 24 20 16 21 19 23 38 48 48 50 46 56 53 46 41 48 45 36 45
37 39 34 33 30 32 32 30 27 27 30 31 22 23 19 28 27 15 19 23 15 20 20 20 28 20 18 21 15 16 25 32 42 40 23 21 27 30 30 27 30 30 33 30
38 38 36 36 30 31 32 35 31 26 24 22 18 23 19 28 28 27 26 19 21 23 21 27 25 27 27 16 16 15 20 21 26 28 25 24 24 25 27 28 31 35 36 36
39 36 35 32 36 33 30 35 29 27 27 27 22 23 31 27 37 28 27 26 28 20 28 21 21 24 22 16 17 20 20 25 28 29 28 28 29 30 33 35 38 41 42 43
38 38 35 38 29 37 35 23 28 35 25 23 26 21 27 24 26 31 34 25 29 31 28 21 23 24 23 24 24 25 28 25 30 32 35 34 38 38 38 42 44 45 43 44
38 35 36 37 42 34 42 38 31 29 36 28 28 29 42 35 35 24 26 32 35 34 34 28 25 25 29 31 32 34 34 33 32 36 38 40 43 44 45 47 49 48 47 48
32 38 30 34 27 24 29 38 33 33 29 34 29 36 28 35 23 26 30 27 29 22 31 36 33 32 35 37 39 40 39 40 41 41 42 45 47 49 50 50 48 46 48 49
38 46 34 38 37 31 36 29 35 24 29 33 41 39 22 23 27 28 36 31 28 25 37 28 31 37 39 38 38 38 41 43 44 45 46 47 47 48 46 47 48 49 51 52
42 44 43 38 35 29 32 34 37 30 33 33 37 44 41 24 31 28 34 25 24 19 27 25 29 37 38 37 38 39 39 41 42 43 44 47 48 48 52 52 53 53 53 54
35 41 37 25 38 38 30 33 38 39 43 32 24 39 36 46 42 38 43 40 32 32 39 32 31 32 41 42 42 43 43 44 44 43 45 48 50 51 52 55 56 58 57 58
31 39 33 21 23 37 26 31 32 34 46 17 15 13 25 32 22 46 42 37 37 38 38 29 28 29 30 35 39 42 42 45 47 51 51 50 50 49 50 49 50 52 53 51
33 38 37 39 37 23 30 28 27 18 17 23 3 21 22 27 15 21 21 32 31 31 25 28 28 31 30 33 36 39 45 47 46 46 47 45 46 47 47 46 46 46 46 45
37 40 40 30 34 26 34 27 26 23 24 27 24 17 16 21 20 22 20 33 25 29 30 31 31 33 34 35 35 36 39 41 42 43 44 44 44 44 44 44 45 44 43 42
35 37 36 29 14 21 18 18 27 27 28 24 26 31 34 33 34 36 35 31 29 30 32 32 35 36 35 36 36 36 38 39 40 40 40 41 41 41 41 42 41 41 39 36
39 38 34 27 17 18 26 21 16 20 26 25 25 29 33 32 32 32 27 29 30 31 33 35 35 34 34 33 32 33 33 34 33 34 34 35 37 38 38 37 37 34 32 31
38 32 34 22 24 16 19 22 21 22 25 23 24 25 26 26 28 27 28 31 31 32 32 32 31 29 30 32 34 35 35 35 36 36 36 36 36 36 35 32 30 29 28 30
38 35 32 31 27 22 18 21 23 22 24 22 20 23 23 24 25 26 26 28 29 29 29 29 29 29 32 32 34 35 37 38 39 38 37 35 35 35 30 27 25 25 27 31
21 21 35 21 19 16 13 17 20 21 19 14 16 18 18 20 22 23 24 25 25 26 27 28 29 30 33 34 35 36 36 35 34 34 36 36 34 29 23 22 21 25 28 31
20 18 18 18 17 15 13 13 13 12 13 15 15 16 17 17 18 19 20 22 23 25 27 29 31 32 35 37 37 35 32 32 34 35 31 28 23 21 23 21 21 23 27 29
17 19 19 17 15 12 11 11 12 12 12 14 14 16 16 15 15 18 20 22 24 26 28 30 32 34 34 31 30 31 31 29 24 20 21 20 19 22 19 15 19 22 24 28
21 20 19 15 12 11 9 10 11 11 13 13 15 15 15 16 17 19 20 21 23 25 27 29 31 29 28 28 27 25 19 17 20 18 14 15 13 6 9 14 18 19 23 29
Wind_Direction
245 241 242 238 239 241 241 242 243 241 218 255 258 246 246 243 246 248 252 251 252 251 247 243 248 252 255 257 259 266 265 263 260 256 259 264 267 274 267 274 273 253 234 296
242 240 237 235 231 231 228 223 217 253 224 222 239 255 250 246 247 248 252 258 258 256 253 249 246 249 254 256 256 258 261 259 264 259 260 267 261 259 267 266 272 274 277 281
241 242 234 228 227 226 222 216 206 204 219 211 232 249 255 250 245 243 243 252 261 265 261 258 258 252 251 255 258 256 257 261 268 251 257 264 271 262 259 264 266 267 276 278
236 234 224 225 226 225 224 216 207 216 206 229 260 262 280 270 263 250 246 250 257 260 255 252 249 250 250 255 258 257 261 263 258 278 258 261 272 270 265 266 256 267 271 271
237 230 221 222 222 214 220 224 221 211 219 221 215 231 192 221 232 264 253 248 253 254 243 229 225 250 252 257 255 253 256 252 260 261 269 263 264 266 269 260 263 272 269 276
230 227 222 220 219 213 213 198 221 228 224 234 231 223 198 231 244 264 272 249 239 205 215 230 227 241 260 278 258 250 267 260 258 265 263 269 266 264 266 258 259 259 267 268
218 218 213 198 215 213 204 199 209 218 217 232 233 226 204 231 226 183 222 255 238 216 221 208 231 254 266 257 276 263 265 258 256 258 274 282 283 272 279 270 271 275 273 279
214 211 206 197 206 210 210 209 203 215 224 234 238 226 215 244 254 235 216 230 238 247 233 224 246 244 247 239 249 248 266 262 262 261 260 264 267 277 269 274 275 273 276 279
215 216 208 196 210 196 207 219 204 203 212 224 210 214 233 209 231 246 247 250 246 236 234 238 233 241 256 258 245 255 267 263 267 270 270 268 270 276 279 279 284 281 279 278
212 208 200 204 200 210 208 219 217 203 222 229 207 209 230 216 247 253 259 246 243 247 244 233 228 235 249 254 257 262 263 261 255 258 264 269 273 275 277 279 280 280 278 279
209 203 202 192 207 213 201 203 210 218 212 230 217 207 212 215 215 194 254 248 241 252 257 249 238 242 250 254 259 263 266 266 261 259 262 264 266 269 274 278 281 279 275 276
206 199 197 194 197 219 212 202 206 209 203 217 238 232 231 221 207 205 219 234 255 243 254 260 262 255 255 257 259 262 264 264 266 268 269 269 273 277 279 280 280 279 282 286
198 198 212 183 192 196 197 200 215 213 205 214 227 226 221 190 219 238 221 239 196 280 269 248 259 261 259 260 261 263 264 266 267 268 269 270 269 268 270 268 270 273 277 280
212 197 196 196 201 202 189 195 195 221 237 227 220 227 238 254 243 253 267 195 247 233 247 241 258 267 268 262 262 263 264 267 269 273 276 276 275 273 272 274 275 278 280 282
203 205 198 193 192 196 189 204 201 211 222 223 235 228 229 237 248 244 249 255 253 258 245 286 287 279 262 259 257 260 264 267 270 270 272 273 273 274 276 276 276 277 278 279
184 178 186 232 207 180 174 199 221 227 226 221 205 228 217 241 239 240 244 255 256 258 264 281 283 276 272 265 260 260 263 266 263 271 273 272 274 274 274 275 275 275 276 278
185 188 195 200 211 196 192 194 209 217 224 230 235 250 247 248 252 247 241 256 267 264 268 270 276 278 276 269 264 262 263 264 268 269 269 274 274 274 276 279 281 281 281 281
200 196 197 195 192 199 205 197 202 210 217 217 206 230 242 239 239 241 257 276 279 277 276 274 276 278 277 278 278 275 274 274 274 273 274 276 277 279 281 283 283 283 282 281
192 200 195 203 194 213 211 211 219 218 218 208 211 222 229 247 247 255 265 275 273 272 275 278 277 279 280 279 277 275 274 274 273 275 275 276 278 281 282 283 283 282 281 280
195 199 194 194 188 186 205 219 214 210 219 225 231 231 234 242 252 259 268 272 271 270 274 276 279 279 277 277 278 278 277 275 276 277 279 281 282 282 283 282 279 278 278 280
198 192 198 189 174 194 207 200 203 214 227 224 230 245 252 253 256 258 259 265 271 274 276 277 276 275 277 278 277 275 274 274 275 277 280 284 284 283 281 277 276 276 280 286
183 202 189 189 200 207 189 203 213 228 238 242 239 242 247 254 259 263 263 268 270 271 272 274 278 279 284 285 283 280 278 277 278 279 280 281 280 281 276 274 274 281 288 296
173 164 192 195 207 203 198 206 220 229 238 246 240 243 249 253 260 264 267 268 270 273 275 278 280 283 287 289 288 283 282 282 283 282 281 281 279 277 269 271 278 288 295 300
172 180 181 186 186 199 207 222 228 231 231 231 239 245 255 262 266 268 271 273 275 277 280 283 286 289 291 290 288 286 284 284 285 284 281 280 272 262 266 267 283 293 302 312
180 185 184 191 195 204 221 225 231 229 236 241 247 253 257 266 272 277 280 280 281 280 281 284 288 293 293 290 287 285 287 286 281 276 280 279 274 272 255 278 292 304 318 314
189 192 194 198 204 217 225 231 233 234 238 245 253 259 264 269 276 283 287 284 280 281 282 285 294 296 295 293 291 292 283 277 281 283 277 265 249 258 287 295 309 321 330 324
Height
5708 5709 5712 5719 5723 5729 5733 5736 5740 5744 5748 5751 5749 5753 5757 5760 5763 5764 5764 5766 5770 5776 5782 5787 5787 5782 5786 5790 5791 5782 5789 5793 5802 5809 5805 5807 5815 5817 5822 5815 5815 5818 5753 5793
5696 5697 5705 5713 5716 5720 5724 5728 5736 5743 5745 5745 5746 5745 5750 5752 5754 5756 5757 5757 5760 5763 5770 5775 5777 5773 5777 5778 5784 5783 5780 5781 5789 5793 5791 5798 5813 5810 5811 5811 5800 5797 5795 5793
5686 5693 5698 5702 5705 5709 5715 5721 5729 5736 5739 5740 5741 5740 5744 5748 5749 5749 5750 5750 5751 5753 5758 5763 5763 5766 5769 5769 5773 5776 5778 5779 5779 5787 5792 5793 5793 5799 5803 5807 5799 5796 5797 5796
5677 5683 5687 5691 5696 5703 5708 5716 5722 5728 5730 5735 5736 5738 5742 5743 5744 5745 5745 5744 5745 5746 5748 5752 5754 5754 5759 5764 5767 5766 5770 5774 5778 5776 5781 5785 5784 5785 5795 5794 5796 5791 5786 5787
5669 5673 5678 5681 5688 5696 5704 5712 5715 5720 5725 5728 5729 5732 5737 5739 5739 5739 5741 5739 5740 5740 5741 5743 5748 5748 5755 5758 5762 5763 5762 5766 5766 5769 5771 5771 5771 5770 5777 5782 5782 5780 5778 5778
5659 5665 5670 5677 5684 5691 5700 5706 5711 5714 5718 5717 5722 5728 5733 5736 5737 5736 5734 5737 5738 5738 5740 5743 5741 5746 5750 5752 5753 5755 5755 5758 5758 5763 5761 5763 5764 5764 5762 5763 5763 5764 5766 5765
5648 5654 5662 5670 5678 5684 5690 5698 5704 5708 5710 5711 5719 5722 5728 5728 5731 5732 5732 5731 5735 5734 5735 5737 5735 5741 5746 5746 5748 5751 5751 5752 5753 5756 5753 5751 5753 5752 5756 5756 5757 5758 5758 5758
5640 5647 5654 5663 5669 5677 5682 5689 5695 5701 5706 5712 5716 5716 5724 5723 5724 5724 5729 5730 5729 5730 5730 5734 5733 5734 5738 5742 5743 5745 5745 5745 5747 5748 5747 5747 5747 5749 5750 5751 5751 5749 5748 5748
5634 5642 5652 5657 5666 5672 5678 5681 5692 5698 5703 5702 5709 5716 5713 5717 5716 5720 5725 5728 5724 5728 5724 5729 5732 5731 5730 5736 5739 5739 5741 5741 5742 5743 5741 5742 5743 5743 5743 5742 5742 5741 5740 5739
5629 5637 5643 5651 5658 5665 5672 5682 5686 5688 5694 5698 5704 5710 5705 5710 5713 5715 5714 5720 5721 5720 5720 5724 5725 5726 5728 5730 5732 5734 5735 5735 5735 5735 5737 5737 5737 5736 5736 5736 5734 5734 5731 5730
5622 5627 5634 5640 5647 5656 5665 5669 5679 5685 5689 5692 5696 5695 5699 5701 5702 5705 5709 5710 5712 5714 5714 5719 5721 5723 5724 5726 5726 5727 5728 5728 5729 5730 5729 5729 5729 5728 5727 5727 5725 5723 5721 5721
5616 5620 5625 5635 5645 5654 5659 5666 5671 5675 5681 5689 5691 5692 5693 5697 5697 5701 5701 5700 5703 5705 5709 5710 5713 5715 5716 5718 5719 5719 5720 5720 5720 5721 5721 5721 5720 5718 5717 5715 5713 5713 5711 5708
5609 5612 5618 5630 5635 5643 5649 5661 5668 5673 5676 5682 5684 5686 5689 5688 5695 5700 5695 5700 5683 5695 5698 5702 5707 5707 5708 5710 5711 5712 5711 5711 5712 5712 5710 5709 5709 5708 5708 5707 5705 5703 5702 5700
5602 5610 5613 5622 5634 5642 5648 5655 5663 5670 5670 5675 5677 5681 5684 5687 5689 5691 5684 5678 5695 5692 5685 5696 5698 5700 5702 5702 5702 5702 5702 5702 5702 5702 5701 5700 5698 5697 5696 5695 5693 5692 5690 5689
5598 5606 5615 5618 5627 5636 5644 5653 5656 5660 5662 5667 5673 5677 5680 5682 5686 5685 5684 5685 5688 5692 5687 5687 5688 5691 5691 5693 5692 5692 5693 5693 5694 5693 5691 5689 5688 5686 5685 5683 5682 5681 5680 5677
5596 5605 5614 5616 5621 5631 5641 5649 5651 5655 5654 5663 5664 5665 5673 5675 5676 5677 5680 5684 5685 5685 5684 5683 5684 5685 5684 5684 5683 5683 5683 5683 5682 5681 5679 5678 5677 5676 5674 5673 5671 5670 5668 5664
5593 5604 5609 5613 5618 5622 5635 5642 5646 5651 5655 5661 5664 5662 5665 5667 5669 5669 5670 5677 5678 5675 5678 5682 5681 5679 5678 5675 5675 5675 5674 5672 5671 5671 5669 5667 5666 5665 5663 5661 5659 5656 5653 5650
5592 5598 5603 5606 5615 5624 5631 5637 5644 5649 5654 5658 5661 5661 5661 5664 5662 5668 5666 5666 5671 5671 5672 5673 5672 5670 5667 5666 5666 5664 5663 5661 5661 5659 5658 5656 5655 5653 5651 5649 5646 5644 5641 5638
5588 5594 5602 5609 5614 5622 5628 5634 5639 5644 5650 5651 5654 5658 5659 5657 5659 5661 5663 5665 5665 5664 5664 5664 5662 5661 5659 5657 5656 5654 5653 5651 5650 5649 5647 5646 5644 5643 5641 5638 5635 5632 5630 5628
5586 5593 5602 5609 5613 5619 5624 5629 5636 5639 5642 5648 5652 5653 5652 5655 5657 5658 5661 5659 5658 5658 5656 5655 5654 5652 5651 5649 5647 5645 5644 5642 5640 5639 5638 5636 5635 5632 5630 5627 5624 5622 5621 5619
5585 5593 5601 5606 5611 5615 5620 5626 5632 5637 5640 5642 5646 5647 5649 5651 5652 5652 5652 5651 5651 5649 5648 5646 5645 5645 5643 5641 5639 5637 5635 5633 5631 5629 5628 5626 5624 5622 5619 5617 5615 5615 5613 5612
5586 5592 5598 5603 5609 5614 5619 5623 5627 5630 5632 5637 5640 5641 5643 5643 5644 5644 5644 5644 5642 5641 5640 5639 5637 5636 5633 5631 5629 5627 5624 5623 5621 5619 5618 5616 5614 5612 5610 5609 5608 5608 5606 5603
5584 5588 5594 5603 5608 5612 5616 5619 5622 5625 5629 5632 5635 5636 5636 5637 5638 5638 5637 5637 5636 5634 5633 5631 5630 5628 5625 5622 5620 5617 5614 5613 5611 5609 5607 5606 5604 5603 5603 5603 5603 5601 5599 5596
5585 5590 5596 5601 5605 5609 5613 5617 5621 5623 5624 5626 5629 5631 5632 5632 5632 5632 5631 5630 5629 5627 5626 5624 5622 5619 5616 5613 5609 5607 5606 5604 5602 5600 5597 5596 5596 5596 5597 5597 5597 5596 5593 5589
5587 5591 5595 5599 5603 5607 5610 5613 5615 5617 5620 5623 5624 5625 5626 5626 5626 5625 5624 5623 5622 5621 5619 5617 5615 5612 5608 5604 5602 5600 5598 5596 5594 5592 5591 5590 5591 5591 5592 5592 5592 5591 5588 5582
5585 5589 5593 5597 5600 5604 5607 5609 5611 5614 5617 5618 5620 5621 5621 5621 5621 5620 5618 5616 5615 5614 5612 5610 5607 5604 5601 5598 5595 5593 5592 5590 5590 5588 5587 5587 5587 5586 5588 5588 5586 5585 5581 5573